sat.trackr.live / text

‹ back to catalog

GPS BIIF-1 (PRN 25)

NORAD 36585 · 2010-022A

PAYLOAD ACTIVE UNKNOWN

§ Identity

Operator
Country
US
Launch date
2010-05-28
Launch site
AFETR
Launch vehicle
Mass (kg)
RCS (m²)
5.96

Purposes: nav

External: N2YO · Heavens-Above · Gunter

§ Orbital elements

Epoch: 2026-05-23T18:48:14.162400Z

Period
717.99 min
Inclination
54.2724°
Eccentricity
0.0126358
Mean motion
2.00561193 rev/d
Perigee alt
19,846.8 km
Apogee alt
20,518.0 km
Semi-major
26,560.6 km
B*
0.0000e+0
RAAN
209.5453°
Arg perigee
66.1078°
Mean anomaly
118.5533°
Rev number
11,710

§ Raw data

GPS BIIF-1  (PRN 25)1 36585U 10022A   26143.78349725 -.00000007  00000+0  00000+0 0  99992 36585  54.2724 209.5453 0126358  66.1078 118.5533  2.00561193117107

JSON: /api/v1/satellites/36585 · /tle

For live sub-satellite position, see the globe view (requires WebGL).

§ Visibility from observer

Set your observer location to see the next 7 days of passes ≥ 10°. The values pass through the URL so the page stays shareable.

No JS? Fill the form by hand. The geolocation button needs JavaScript.